Weather History for KTCS - January, 2014

Change the Weather History Date:

Tuesday, January 14, 2014

  Actual Average Record
Temperature  
Mean Temperature 44 °F -  
Max Temperature 57 °F 54 °F 62 °F (2003)
Min Temperature 32 °F 28 °F 13 °F (2013)
Degree Days  
Heating Degree Days 20    
Month to date heating degree days  
Since 1 July heating degree days  
Moisture  
Dew Point 11 °F    
Average Humidity 26    
Maximum Humidity 35    
Minimum Humidity 16    
Precipitation  
Precipitation 0.00 in - 0.11 in (2015)
Month to date precipitation 0.00  
Year to date precipitation 0.00  
Sea Level Pressure  
Sea Level Pressure 30.24 in    
Wind  
Wind Speed 8 mph (NNW)    
Max Wind Speed 17 mph    
Max Gust Speed 23 mph    
Visibility 10 miles    
Events      
T = Trace of Precipitation, MM = Missing Value Source: NWS Daily Summary

Daily Weather History Graph

Daily Weather History Graph

Search for Another Location

Airport or City:

Trip Planner

Search our weather history database for the weather conditions in past years. The results will help you decide how hot, cold, wet, or windy it might be!

Date:

Astronomy

Jan. 14, 2014 Rise Set
Actual Time 7:12 AM MST 5:23 PM MST
Civil Twilight 6:45 AM MST 5:50 PM MST
Nautical Twilight 6:15 AM MST 6:21 PM MST
Astronomical Twilight 5:45 AM MST 6:51 PM MST
Moon 4:30 PM MST (1/14) 5:50 AM MST (1/14)
Length of Visible Light 11h 04m
Length of Day
10h 11m
Waxing Gibbous, 98% of the Moon is Illuminated
Jan 14
Waxing Gibbous
Jan 15
Full
Jan 23
Last Quarter
Jan 30
New
Feb 6
First Quarter

Hourly Weather History & Observations

Time (MST) Temp. Windchill Dew Point Humidity Pressure Visibility Wind Dir Wind Speed Gust Speed Precip Events Conditions
12:53 AM 43.0 °F 36.0 °F 9.0 °F 25% 30.14 in 10.0 mi NW 13.8 mph 18.4 mph N/A   Clear
1:53 AM 43.0 °F 37.2 °F 9.0 °F 25% 30.13 in 10.0 mi NNW 10.4 mph 21.9 mph N/A   Clear
2:53 AM 39.9 °F 33.9 °F 10.0 °F 29% 30.15 in 10.0 mi NW 9.2 mph - N/A   Clear
3:53 AM 39.0 °F 34.8 °F 9.0 °F 29% 30.15 in 10.0 mi North 5.8 mph - N/A   Clear
4:53 AM 36.0 °F 29.6 °F 10.0 °F 34% 30.17 in 10.0 mi North 8.1 mph - N/A   Clear
5:53 AM 36.0 °F 30.3 °F 10.0 °F 34% 30.20 in 10.0 mi North 6.9 mph - N/A   Clear
6:53 AM 37.0 °F 31.6 °F 10.0 °F 33% 30.22 in 10.0 mi NW 6.9 mph - N/A   Clear
7:53 AM 37.0 °F 32.4 °F 10.9 °F 34% 30.25 in 10.0 mi NW 5.8 mph - N/A   Clear
8:53 AM 43.0 °F 38.8 °F 12.0 °F 28% 30.26 in 10.0 mi NE 6.9 mph - N/A   Clear
9:53 AM 46.0 °F 43.1 °F 10.9 °F 24% 30.27 in 10.0 mi NE 5.8 mph - N/A   Clear
10:53 AM 48.9 °F - 12.0 °F 23% 30.28 in 10.0 mi ENE 11.5 mph 17.3 mph N/A   Clear
11:53 AM 48.9 °F - 12.0 °F 23% 30.27 in 10.0 mi ENE 6.9 mph - N/A   Clear
12:53 PM 50.0 °F - 12.9 °F 23% 30.23 in 10.0 mi Variable 5.8 mph - N/A   Clear
1:53 PM 55.0 °F - 12.0 °F 18% 30.20 in 10.0 mi East 6.9 mph - N/A   Clear
2:53 PM 55.9 °F - 10.9 °F 17% 30.19 in 10.0 mi SE 4.6 mph - N/A   Clear
3:53 PM 55.9 °F - 10.0 °F 16% 30.21 in 10.0 mi Calm Calm - N/A   Clear
4:53 PM 55.0 °F - 10.9 °F 17% 30.24 in 10.0 mi South 4.6 mph - N/A   Clear
5:53 PM 46.9 °F - 12.9 °F 25% 30.27 in 10.0 mi WSW 4.6 mph - N/A   Clear
6:53 PM 45.0 °F 43.5 °F 12.0 °F 26% 30.29 in 10.0 mi WNW 3.5 mph - N/A   Clear
7:53 PM 42.1 °F 37.7 °F 12.0 °F 29% 30.31 in 10.0 mi WNW 6.9 mph - N/A   Clear
8:53 PM 43.0 °F 38.2 °F 12.0 °F 28% 30.31 in 10.0 mi NW 8.1 mph - N/A   Clear
9:53 PM 41.0 °F 37.1 °F 10.0 °F 28% 30.32 in 10.0 mi North 5.8 mph - N/A   Clear
10:53 PM 41.0 °F 37.1 °F 10.0 °F 28% 30.32 in 10.0 mi NW 5.8 mph - N/A   Clear
11:53 PM 42.1 °F 36.1 °F 10.0 °F 27% 30.32 in 10.0 mi NW 10.4 mph - N/A   Clear